Погода в Благодаровке

Россия / Омская область     54°04′20″N   73°10′49″E
темп.,
°C
ветер,
м/с
пор.,
м/с
влажн.,
%
обл.,
%
осадки,
мм/ч
давл.,
гПа
погр.,
м
20 января, чт
чт2000:00−20юз339945 0.0 102931
03:00−20юз3310054 0.0 103034
06:00−20юз339927 0.0 103136
09:00−21юз2310069 0.0 103230
12:00−16юз349491 0.0 103382
15:00−14ююз249350 0.0 103267
18:00−19ююз229957 0.0 103313
21:00−21ююв229626 0.0 103310
21 января, пт
пт2100:00−20ююв3396100 0.0 103334
03:00−22ююв22986 0.0 103221
06:00−22юв22100100 0.0 103218
09:00−17юв3496100 0.0 103054
12:00−14юв3693100 0.0 1031133
15:00−12вюв3592100 0.0 1030123
18:00−14вюв3691100 0.0 103093
21:00−17вюв359391 0.0 103054
22 января, сб
сб2200:00−18юв359540 0.0 103151
03:00−20вюв33985 0.0 103134
06:00−19вюв35975 0.0 103147
09:00−21вюв33995 0.0 103334
12:00−16юв369315 0.0 1033112
15:00−14в35925 0.0 103288
18:00−18в35959 0.0 103349
21:00−19вюв369633 0.0 103466
23 января, вс
вс2300:00−19в369634 0.0 103566
03:00−20в369614 0.0 103560
06:00−20в359636 0.0 103557
09:00−20в469645 0.0 103669
12:00−17в369179 0.0 1037126
15:00−15всв3589100 0.0 1037111
18:00−17всв3591100 0.0 103868
21:00−18всв3592100 0.0 103959
24 января, пн
пн2400:00−19св349589 0.0 104050
03:00−20всв3498100 0.0 104047
06:00−19св3498100 0.0 104047
09:00−19св3499100 0.0 104158
12:00−16всв2498100 0.0 104182
15:00−14св3496100 0.0 1040105
18:00−18ссв339988 0.0 104128
21:00−22св2210059 0.0 104115